Home > Weather > Caversham > Past weeks

Flag for United Kingdom Past Weather in Caversham, England, United Kingdom — Yesterday and Last 2 Weeks

Now
60 °F

Cool.


Feels Like: 57 °F
Forecast: 51 / 63 °F
Wind: 13 mph from Southwest

Location: Benson

Current Time: Jul 1, 2016 at 1:55:50 AM

Latest Report: Jul 1, 2016 at 1:00 AM


Visibility: 17 mi

Pressure: 29.76 "Hg

Humidity: 87%

Dew Point: 56 °F

Location of CavershamLocation

Past Weather in Caversham — Graph

°F

Caversham Temperature Yesterday

Maximum temperature yesterday: 66 °F (at 1:00 PM)
Minimum temperature yesterday: 55 °F (at 5:00 AM)
Average temperature yesterday: 61 °F

High & Low Weather Summary for the Past Weeks

 TemperatureHumidityPressure
High69 °F (Jun 22, 7:00 PM)99% (Jun 16, 5:00 AM)30.25 "Hg (Jun 16, 5:00 AM)
Low43 °F (Jun 28, 4:00 AM)49% (Jun 27, 6:00 PM)29.50 "Hg (Jun 16, 12:00 AM)
Average59 °F84%29.95 "Hg
* Reported Jun 16 12:00 AM — Jul 1 12:00 AM, Caversham, Weather by CustomWeather, © 2016

Note: Actual official high and low records may vary slightly from our data, if they occured in-between our weather recording intervals... More about our weather records

Advertising

Caversham Weather History for the Previous 24 Hours

Scroll right to see more
 ConditionsComfort  
Time TempWeatherWind HumidityBarometerVisibility
12:00 AM
Fri, Jul 1
60 °FOvercast.13 mph88%29.77 "Hg12 mi
11:00 PM
Thu, Jun 30
60 °FOvercast.13 mph91%29.77 "Hg16 mi
10:00 PM60 °FLight rain. Overcast.13 mph90%29.78 "Hg12 mi
9:00 PM61 °FOvercast.14 mph79%29.78 "Hg12 mi
8:00 PM62 °FOvercast.10 mph79%29.78 "Hg19 mi
7:00 PM63 °FOvercast.13 mph76%29.79 "Hg19 mi
6:00 PM63 °FOvercast.8 mph81%29.79 "Hg17 mi
5:00 PM65 °FOvercast.12 mph71%29.79 "Hg22 mi
4:00 PM65 °FOvercast.13 mph66%29.80 "Hg19 mi
3:00 PM66 °FOvercast.13 mph63%29.80 "Hg19 mi
2:00 PM65 °FOvercast.13 mph62%29.81 "Hg19 mi
1:00 PM66 °FOvercast.10 mph67%29.80 "Hg19 mi
12:00 PM65 °FPartly sunny.12 mph63%29.80 "Hg19 mi
11:00 AM64 °FPartly sunny.9 mph72%29.80 "Hg19 mi
10:00 AM62 °FPartly sunny.8 mph75%29.80 "Hg16 mi
9:00 AM60 °FOvercast.7 mph80%29.79 "Hg16 mi
8:00 AM59 °FOvercast.7 mph85%29.79 "Hg16 mi
7:00 AM56 °FLow clouds.6 mph91%29.78 "Hg11 mi
6:00 AM56 °FOvercast.6 mph94%29.77 "Hg9 mi
5:00 AM55 °FPartly sunny.5 mph94%29.76 "Hg12 mi
4:00 AM56 °FOvercast.6 mph94%29.76 "Hg9 mi
3:00 AM56 °FCool.6 mph92%29.76 "Hg16 mi
2:00 AM56 °FCool.6 mph90%29.75 "Hg18 mi
1:00 AM56 °FOvercast.7 mph90%29.75 "Hg16 mi
Weather by CustomWeather, © 2016

See weather overviewHow to use our weather pages